M22 ATLAS South Africa, Sutherland. Observers L. Denneau, R. Siverd, J.
Tonry, H. Weiland. Measurers L. Denneau, N. Erasmus, A. Fitzsimmons, J.
Robinson, R. Siverd, J. Tonry, H. Weiland. 0.5-m Reflector + CCD.
M28 Lesedi Telescope-SAAO Observatory, Sutherland. Observers N. Erasmus, S.
Potter, C. van Gend, S. Chandra, H. Worters. Measurers T. Ngwane, N.
Erasmus. 1.0-m f/8 Reflector + CCD.
M45 Starhopper Observatory, Sfantu Gheorghe. Observer F. Ursache. 0.41-m
f/7.5 reflector + CMO.
O46 Daocheng Glacier Observatory. Observer Z. Wang. 0.25-m f/8 reflector +
CMO.
T05 ATLAS-HKO, Haleakala. Observers L. Denneau, R. Siverd, J. Tonry, H.
Weiland. Measurers L. Denneau, N. Erasmus, A. Fitzsimmons, J. Robinson,
R. Siverd, J. Tonry, H. Weiland. 0.5-m Reflector + CCD.
V21 Cewanee Observatory at DSNM. Observers D. T. Durig, A. E. Cuevas, M. C.
Rice. 0.40 m f/8 Ritchey-Chretien + 4656x3520 CCD.
V24 Sonoran Desert Skies Observatory, Pearce. Observer A. Helms. 0.32-m
f/6.7 reflector + CMO.
V27 North Mesa Observatory, Los Alamos. Observer B. K. Kendrick. 0.25-m f/6
reflector + CCD.
W46 Foxfire Village. Observer J. Haidet. .36-m f/6.3 Ritchey-Chretien + CCD.
Y05 SONEAR Wykrota-CEAMIG, Serra da Piedade. Observer C. Jacques. 0.45-m
f/2.9 reflector + CMO.
Z80 Northolt Branch Observatory. Observer G. Wells. 0.25-m f/8.0 Ritchey-
Chretien + CCD.
Orbital elements:
2024 HR1 Earth MOID = 0.0740 AU
Epoch 2024 Mar. 31.0 TT = JDT 2460400.5 Veres
M 350.56731 (2000.0) P Q
n 0.29519658 Peri. 6.38740 -0.74337581 +0.64933825
a 2.2338902 Node 215.80621 -0.62517924 -0.75981307
e 0.5169441 Incl. 15.92000 -0.23778839 -0.03231018
P 3.34 H 23.06 G 0.15 U 7
Residuals in seconds of arc
240428 G96 0.0 0.0 240428 L01 0.2- 0.2+ 240429 V21 0.1+ 0.1+
240428 G96 0.0 0.1+ 240428 L01 0.2- 0.0 240429 V21 0.0 0.3+
240428 G96 0.2- 0.2- 240428 L01 0.0 0.1+ 240429 V21 0.0 0.4+
240428 G96 0.0 0.2+ 240428 M28 0.1+ 0.6+ 240429 V21 0.1- 0.6-
240428 T05 0.5+ 0.1+ 240428 M28 0.1+ 0.4+ 240429 V21 0.5+ 0.2-
240428 T05 0.8- 0.4- 240428 M28 0.1- 0.4+ 240429 V21 0.3+ 0.1+
240428 T05 0.2+ 0.0 240428 Z80 0.1+ 0.1+ 240429 V21 0.1+ 0.2+
240428 T05 0.2+ 0.0 240428 Z80 0.3- 0.0 240429 V21 0.0 0.2-
240428 I52 0.1+ 0.0 240429 C23 0.2- 0.1- 240429 V21 0.3- 2.6-
240428 I52 0.1+ 0.1+ 240429 C23 0.2+ 0.2+ 240429 F52 0.1- 0.2-
240428 I52 0.1+ 0.1- 240429 C23 (0.8+ 0.5+) 240429 F52 0.0 0.1+
240428 I52 0.0 0.2- 240429 C23 0.4- 0.2- 240429 F52 0.0 0.1-
240428 O46 0.2- 0.4+ 240429 M22 0.2+ 0.2+ 240429 F52 0.4+ 0.0
240428 O46 0.1- 0.0 240429 M22 0.5+ 0.1+ 240429 G02 0.5- 0.1+
240428 O46 0.1+ 0.0 240429 M22 0.2- 0.4- 240429 G02 0.5- 0.2+
240428 C75 0.0 0.2+ 240429 M22 0.5+ 0.8+ 240429 G02 0.4- 0.2-
240428 D63 0.3- 0.2+ 240429 J95 0.1+ 0.0 240429 C82 0.2- 0.1-
240428 D63 0.3+ 0.0 240429 J95 0.2+ 0.0 240429 C82 (0.3+ 1.1+)
240428 595 0.1- 0.2+ 240429 J95 0.1- 0.2- 240429 A71 0.4+ 0.1+
240428 I93 0.0 0.2- 240429 J95 0.1- 0.2- 240429 A71 0.1- 0.3+
240428 I93 0.2+ 0.0 240429 W46 0.2- 0.7+ 240429 C82 0.1- 0.1-
240428 I93 0.0 0.1- 240429 W46 0.4- 0.1+ 240429 A71 0.2+ 0.4+
240428 595 0.2+ 0.0 240429 Y05 0.2- 0.4+ 240429 C82 0.0 0.2-
240428 104 0.0 0.3+ 240429 W46 0.5- 0.7- 240429 G34 0.4+ 0.7+
240428 595 0.0 0.2+ 240429 Y05 0.1+ 0.2+ 240429 G34 0.5+ 0.5+
240428 G17 0.4- 0.2- 240429 Y05 0.0 0.3+ 240429 G34 0.2+ 0.2+
240428 104 0.0 0.2+ 240429 V24 0.7+ 0.5+ 240429 G34 0.3+ 0.0
240428 104 0.3+ 0.1- 240429 V24 0.6+ 0.6+ 240429 G34 0.2- 0.1+
240428 L18 0.3+ 0.2+ 240429 V24 1.0+ 0.8+ 240429 104 0.0 0.3+
240428 L18 0.8- 0.2+ 240429 V27 1.2- 0.6- 240429 104 0.0 0.0
240428 L18 0.6+ 0.2+ 240429 V27 1.5+ 0.3- 240429 104 0.2+ 0.0
240428 L01 0.1- 0.2+ 240429 V27 1.0- 1.0- 240429 M45 0.0 0.1+
240428 L18 0.1- 0.5- 240429 V27 1.4+ 0.2- 240429 M45 0.3+ 0.1+
240428 L01 0.1- 0.2+ 240429 V27 0.8+ 0.8-
240428 G17 0.3- 0.5- 240429 V27 0.5- 0.1+
Ephemeris:
2024 HR1 a,e,i = 2.23, 0.52, 16 q = 1.0791
Date TT R. A. (2000) Decl. Delta r Elong. Phase V
2024 03 30 10 43 33.6 -43 31 27 0.2024 1.1468 133.2 39.4 21.5
...
2024 04 14 11 53 20.0 -37 52 08 0.1169 1.0999 144.2 32.2 20.0
...
2024 04 22 13 13 58.7 -24 48 18 0.08363 1.0856 163.4 15.3 18.7
...
2024 04 28 14 31 10.5 -05 59 35 0.07410 1.0801 171.6 7.9 18.1
2024 04 29 14 44 03.3 -02 28 29 0.07435 1.0796 167.2 11.9 18.3
2024 04 30 14 56 40.3 +00 59 39 0.07514 1.0793 162.9 15.9 18.5
...
2024 05 06 16 03 07.8 +18 13 55 0.08968 1.0801 141.2 35.9 19.5
...
2024 05 14 17 02 34.1 +30 00 56 0.1248 1.0885 125.9 48.8 20.6
...
2024 05 29 17 54 35.5 +36 07 47 0.2046 1.1254 118.4 52.4 21.8
M. P. C. Staff (C) Copyright 2024 MPC M.P.E.C. 2024-H92
More information about the Iaude
mailing list